CZ-6A DEB, 54400

Orbit data source: Space-Track

CZ-6A DEB, 54400 is space debris in SSO originally from a launch on Fri, 11 Nov 2022 UTC launched from the Taiyaun Space Center, China (TSC). Debris objects in space refer to the collection of defunct objects orbiting the Earth. Examples of debris include non-operational satellites, rocket bodies, and fragments generated from explosions, collisions, or faulty payload assembly.

Loading next visibility...
Identifier
54400, 2022-151DY
Orbit
SSO
Country
Flag of CNCN / PRC
Related business
Manufacturer
SAST
Mission
Spacecraft
Bus & Motor
Unknown
Mass
Unknown
Launch date (UTC)
2022-11-11 (4 years ago)
Launch vehicle
Unknown
Launch site
Taiyaun Space Center, China (TSC)
Object type
Payload
Rocket body
Debris
Shape & HBR
Unknown shape, 0.3 m
Radar Cross Section
Medium (>0.1 m² and <1 m²)

Expand to show TLE details & history
Last TLE update: 12 hours ago

TLE from 12 hours ago
0 CZ-6A DEB
1 54400U 22151DY  26236.13227709  .00002099  00000-0  40164-3 0  9992
2 54400  98.5733 306.6649 0120087  27.4705 333.2774 14.60484645200415
Epoch: 2026-08-24T03:10Z
TLE epoch observation values (Epoch: 2026-08-24T03:10:28.740Z)
Latitude
-0.00001°
Longitude
-73.37322°
Altitude
618.947 km
Speed
7.59 km/s
True Right ascension
20h 26m 39s
True Declination
0° 00' 00"
Sunlit
Object was in full shadow at epoch
Visualization orbit readout
Latitude
Unknown
Longitude
Unknown
Altitude
Unknown
Speed
Unknown
Apparent Right ascension
Unknown
Apparent Declination
Unknown
Sunlit
N/A
Visualization observer readout
Local Sidereal Time
06:32:51
Azimuth
Unknown
Elevation
Unknown
Doppler factor
Unknown
Orbital elements
Apogee altitude
773.571 km
Perigee altitude
603.843 km
Semi-major axis
7,066.844 km
Eccentricity
0.01201
Inclination
98.5733°
RAAN
306.6649°
Arg. of periapsis
27.4705°
True anomaly
332.65022°
Mean anomaly
333.2774°
Eccentric anomaly
332.96465°
Mean motion
3.65346 °/min
Orbital period
98.54 mins
BSTAR
0.00040164
Loading maneuver chart data...
Computing Atmospheric mass density...
Loading historical data...
Loading historical data...
Loading historical data...
Loading historical data...
Loading historical data...
Loading historical data...
Loading historical data...

Documentation

Showing up to 5 results
|